Find Kosmos-2116

NORAD ID: 21030 Int'l Des: 1990-114 Owner: UNKS Country: SU operational
LEOCIRCULARPOLAR

現在のビュー

3D地球を読み込み中...

Kosmos-2116について

説明を読み込み中...

次回通過

Passes for default location (London). Set your location on the main map for personalized predictions.

高度履歴

Loading altitude history...

軌道要素

1 21030U 90114C 26151.20472814 .00000032 00000-0 11734-3 0 9998
2 21030 82.5753 217.8338 0005741 135.0667 279.7732 12.64323162635286
Epoch: May 31, 2026 • Age: 8 hours

現在のステータス

高度 1411.8 km
速度 7.16 km/s
衛星直下点 44.94°N, 149.14°E
打ち上げ日 Dec 22, 1990
運用期間 35.4 years
タイプ other

技術仕様

分類 Payload
質量 225.00 kg
乾燥質量 225.00 kg
総質量 225.00 kg
長さ 1.60 m
直径 0.80 m
スパン 7.00 m
形状 Cyl + Ant
製造者 NPOPM
バスタイプ Strela-3
フェーズステータス In Orbit
所有者/国 UNKS/SU

Most Searched